This demonstration page uses our WeatherBlox Daily Observations layout. Learn more.

Left ArrowRight Arrow

Hourly Observations for May 23, 2018

Temp ( °F °C ) Dew Point ( °F °C ) Humidity (%) Winds ( mph kmh ) Pressure ( in mb ) Visibility ( mi km ) Precip ( " mm )
12:53 am 00:53 Clear 72 22.2 63 17.2 73 73 S 10 17 29.93 1013 10 16 0.00 0.00
1:53 am 01:53 Clear 71 21.7 62 16.7 73 73 S 8 13 29.92 1013 10 16 0.00 0.00
2:53 am 02:53 Clear 70 21.1 62 16.7 76 76 S 10 17 29.91 1013 10 16 0.00 0.00
3:53 am 03:53 Clear 70 21.1 63 17.2 79 79 S 8 13 29.91 1013 10 16 0.00 0.00
4:53 am 04:53 Clear 68 20 62 16.7 81 81 S 9 15 29.92 1013 10 16 0.00 0.00
5:53 am 05:53 Clear 67 19.4 63 17.2 87 87 SSE 8 13 29.94 1014 10 16 0.00 0.00
6:53 am 06:53 Sunny 67 19.4 63 17.2 87 87 SSE 8 13 29.97 1015 10 16 0.00 0.00
7:53 am 07:53 Sunny 69 20.6 64 17.8 84 84 SSE 12 19 29.98 1015 10 16 0.00 0.00
8:53 am 08:53 Sunny 73 22.8 65 18.3 76 76 S 14 22 29.97 1015 10 16 0.00 0.00
9:53 am 09:53 Sunny 77 25 65 18.3 66 66 S 13 20 29.98 1015 10 16 0.00 0.00
10:53 am 10:53 Sunny 80 26.7 65 18.3 60 60 SSW 15 24 29.97 1015 10 16 0.00 0.00
11:53 am 11:53 Sunny 82 27.8 65 18.3 56 56 S 14 22 29.97 1015 10 16 0.00 0.00
12:53 pm 12:53 Sunny 84 28.9 66 18.9 55 55 S 12 19 29.96 1014 10 16 0.00 0.00
1:53 pm 13:53 Mostly Sunny 87 30.6 61 16.1 42 42 SSE 15 24 29.93 1014 10 16 0.00 0.00
2:53 pm 14:53 Partly Cloudy 87 30.6 59 15 39 39 SSE 20 31 29.92 1013 10 16 0.00 0.00
3:53 pm 15:53 Mostly Sunny 86 30 61 16.1 43 43 S 15 24 29.90 1013 9 14 0.00 0.00
4:53 pm 16:53 Sunny 87 30.6 59 15 39 39 S 15 24 29.90 1012 10 16 0.00 0.00
5:53 pm 17:53 Mostly Sunny 84 28.9 59 15 43 43 SSW 13 20 29.92 1013 10 16 0.00 0.00
6:53 pm 18:53 Sunny 82 27.8 62 16.7 51 51 undefined N/A 29.92 1013 10 16 0.00 0.00
7:53 pm 19:53 Sunny 82 27.8 61 16.1 49 49 SSE 12 19 29.91 1013 10 16 0.00 0.00
8:53 pm 20:53 Clear 80 26.7 59 15 49 49 S 9 15 29.91 1013 10 16 0.00 0.00
9:53 pm 21:53 Clear 77 25 60 15.6 56 56 SSE 10 17 29.93 1014 10 16 0.00 0.00
10:53 pm 22:53 Clear 78 25.6 61 16.1 56 56 SSE 14 22 29.93 1013 10 16 0.00 0.00
11:53 pm 23:53 Clear 76 24.4 64 17.8 67 67 SSE 16 26 29.93 1014 10 16 0.00 0.00

Powered by AerisWeather